NILESAT 301

Last updated on Wed Sep 17 2025 00:02:51 GMT+0000 (Coordinated Universal Time)

1 52817U 22061A 25258.79725692 -.00000075 00000+0 00000+0 0 9994 2 52817 0.0524 359.6399 0001140 170.7602 104.5978 1.00271814 11986
UTC large
Height (km)
Speed (km/s)
/
Latitude / Longitude
Inclination (degrees)
Orbital Period (minutes)
Azimuth
Elevation
Range (km)
Doppler Factor

Next 0 passes for location: London (51.5072 / 0.1276)

Sorry there are no passes over London.